Flag for Switzerland Weather past 2 weeks in Liestal, Basel-Land, Switzerland

Now
72 °F

Sunny.


Feels Like: 74 °F
Forecast: 53 / 78 °F
Wind: 3 mph from North

Location: Bale-Mulhouse

Current Time: Sep 17, 2014 at 8:10:31 PM

Latest Report: Sep 17, 2014 at 7:30 PM


Visibility: 10 mi

Pressure: 29.86 "Hg

Humidity: 73%

Dew point: 63 °F

Location of LiestalLocation

Historic Weather in Liestal — Graph

°F

Liestal temperature yesterday

Maximum temperature yesterday: 79 °F (at 3:30 PM)
Minimum temperature yesterday: 52 °F (at 4:00 AM)
Average temperature yesterday: 64 °F

Past Weeks' High & Low Weather Summary

 TemperatureHumidityPressure
High81 °F (Sep 6, 3:30 PM)100% (Sep 3, 6:00 AM)30.15 "Hg (Sep 3, 6:00 AM)
Low48 °F (Sep 3, 5:30 AM)44% (Sep 5, 7:00 PM)29.83 "Hg (Sep 17, 4:30 PM)
Average62 °F82%30.00 "Hg
* Reported Sep 2 7:00 PM — Sep 17 7:00 PM, Liestal, Weather by CustomWeather, © 2014

Note: Actual official high and low records may vary slightly from our data, if they occured in-between our weather recording intervals... More about our weather records

Advertising

Liestal weather history for previous 24 hours

 ConditionsComfort  
Time TempWeatherWind HumidityBarometerVisibility
7:00 PM
Sep 17
72 °FBroken clouds.3 mph69%29.86 "HgN/A
6:30 PM73 °FBroken clouds.5 mph65%29.83 "HgN/A
6:00 PM73 °FBroken clouds.6 mph69%29.83 "HgN/A
5:30 PM75 °FPartly sunny.6 mph65%29.83 "HgN/A
5:00 PM75 °FPartly sunny.5 mph65%29.83 "HgN/A
4:30 PM77 °FBroken clouds.5 mph61%29.83 "HgN/A
4:00 PM77 °FBroken clouds.5 mph57%29.86 "HgN/A
3:30 PM77 °FPartly sunny.5 mph51%29.86 "HgN/A
3:00 PM75 °FPartly sunny.3 mph57%29.86 "HgN/A
2:30 PM75 °FPartly sunny.2 mph61%29.86 "HgN/A
2:00 PM73 °FPartly sunny.5 mph65%29.86 "HgN/A
1:30 PM73 °FPartly sunny.3 mph65%29.89 "HgN/A
1:00 PM72 °FPartly sunny.3 mph65%29.89 "HgN/A
12:30 PM72 °FPartly sunny.3 mph69%29.89 "HgN/A
12:00 PM72 °FPartly sunny.5 mph65%29.89 "HgN/A
11:30 AM70 °FPartly sunny.3 mph69%29.92 "HgN/A
11:00 AM70 °FPartly sunny.2 mph69%29.92 "HgN/A
10:30 AM68 °FPartly sunny.3 mph73%29.92 "HgN/A
10:00 AM64 °FPassing clouds.3 mph83%29.92 "HgN/A
9:30 AM61 °FSunny.No wind94%29.92 "Hg10 mi
9:00 AM59 °FSunny.1 mph94%29.92 "Hg10 mi
8:30 AM57 °FClear.No wind94%29.92 "Hg6 mi
8:00 AM55 °FFog.No wind94%29.92 "HgN/A
7:30 AM52 °FFog.3 mph100%29.92 "HgN/A
7:00 AM52 °FFog.3 mph94%29.92 "HgN/A
6:30 AM50 °FCool.1 mph100%29.92 "Hg4 mi
6:00 AM52 °FLight fog.2 mph94%29.92 "Hg4 mi
5:30 AM52 °FFog.1 mph94%29.92 "Hg4 mi
5:00 AM52 °FFog.3 mph100%29.92 "Hg4 mi
4:30 AM52 °FLight fog.2 mph100%29.92 "Hg4 mi
4:00 AM52 °FLight fog.No wind100%29.92 "Hg4 mi
3:30 AM52 °FFog.3 mph100%29.92 "Hg2 mi
3:00 AM54 °FFog.3 mph94%29.92 "Hg3 mi
2:30 AM54 °FFog.No wind94%29.92 "Hg0 mi
2:00 AM54 °FFog.No wind100%29.92 "Hg1 mi
1:30 AM55 °FLight fog.1 mph100%29.92 "Hg2 mi
1:00 AM55 °FFog.1 mph94%29.92 "Hg2 mi
12:30 AM55 °FClear.2 mph94%29.92 "HgN/A
12:00 AM57 °FClear.2 mph94%29.92 "Hg10 mi
11:30 PM
Sep 16
59 °FClear.1 mph94%29.92 "Hg10 mi
11:00 PM57 °FClear.2 mph94%29.92 "Hg10 mi
10:30 PM59 °FPassing clouds.3 mph94%29.92 "HgN/A
10:00 PM61 °FClear.1 mph88%29.92 "Hg10 mi
9:30 PM61 °FClear.3 mph94%29.92 "Hg10 mi
9:00 PM61 °FClear.5 mph94%29.92 "Hg10 mi
8:30 PM63 °FSunny.2 mph88%29.92 "Hg10 mi
8:00 PM66 °FSunny.3 mph83%29.92 "Hg10 mi
Weather by CustomWeather, © 2014

See weather overviewHow to use our weather pages